Location: Wanzleben
(52.0609°N, 11.4408°E)
Time: 16:22:05
(UTC+00:00)

Cosmos 990 Rocket - Pass Details

Date: 18 September 2020
Orbit: 747 x 769 km, 74.0° (Epoch: 21 October)

Event Time Altitude Azimuth Distance (km) Brightness Sun altitude
Rises 17:58:24 0° 196° (SSW) 3,180 7.3 -6.5°
Reaches altitude 10° 18:00:45 10° 194° (SSW) 2,260 6.5 -6.9°
Maximum altitude 18:05:51 71° 111° (ESE) 794 3.9 -7.6°
Drops below altitude 10° 18:10:59 10° 29° (NNE) 2,279 6.3 -8.4°
Sets 18:13:21 0° 27° (NNE) 3,210 7.1 -8.8°
